Location: Chassagnes
(44.4047°N, 4.1657°E)
Time: 12:43:42
(UTC+00:00)

Meteor 2-16 Rocket - Pass Details

Date: 27 October 2020
Orbit: 941 x 957 km, 82.6° (Epoch: 23 November)

Event Time Altitude Azimuth Distance (km) Brightness Sun altitude
Rises 17:21:59 0° 353° (N) 3,617 7.5 -8.2°
Reaches altitude 10° 17:24:30 10° 356° (N) 2,668 6.7 -8.7°
Maximum altitude 17:30:34 68° 79° (E) 1,011 4.4 -9.7°
Drops below altitude 10° 17:36:37 10° 163° (SSE) 2,656 6.7 -10.8°
Sets 17:39:07 0° 166° (SSE) 3,599 7.4 -11.2°
